Portada
METAR-TAF:

METAR-TAF

Aeroports :

Plataforma petroliera

Sleipner, Noruega

latitud: 58-22-00N, longitud: 001-54-25E, altitud: 50 m

Observació

L'informe es va fer fa 35 minuts, a les 14:20 UTC
Vent 40 kt del Sud-Oest
Temperatura 7°C
Humitat 70%
Pressió 987 hPa
Visibilitat 10 km o més

METAR: ENSL 111420Z AUTO 22040KT 9999NDV FEW024/// 07/02 Q0987 W05/S5

Hora: 15:55 (14:55 UTC)


TAF: manca

Observacions i pronòstics meteorològics de més de 4000 aeroports (METAR i TAF).

Les estacions disponibles són els punts grocs i vermells al mapa.

Posi el ratolí al punt desitjat per veure el nom de l'estació.

Feu clic per veure les observacions i els pronòstics meteorològics.

Per canviar el mapa: feu clic els botons verds amb una creu de color negre per apropar; al botó verd amb un guió per allunyar la imatge; o en les fletxes verdes per a mapes adjacents.


METAR-TAF: